THOR ABLESTAR DEB, 469

Orbit data source: Space-Track

THOR ABLESTAR DEB, 469 is space debris in LEO originally from a launch on Thu, 29 Jun 1961 UTC launched from the Air Force Eastern Test Range (AFETR). Debris objects in space refer to the collection of defunct objects orbiting the Earth. Examples of debris include non-operational satellites, rocket bodies, and fragments generated from explosions, collisions, or faulty payload assembly.

Loading next visibility...
Identifier
469, 1961-015FF
Orbit
LEO
Country
Flag of USUS
Related business
Manufacturer
Unknown
Mission
Spacecraft
Bus & Motor
Unknown
Mass
Unknown
Launch date (UTC)
1961-06-29 (65 years ago)
Launch vehicle
Unknown
Launch site
Air Force Eastern Test Range (AFETR)
Object type
Payload
Rocket body
Debris
Shape & HBR
Unknown shape, 0.1 m
Radar Cross Section
Small (<0.1 m²)

Expand to show TLE details & history
Last TLE update: 21 hours ago

TLE from 21 hours ago
0 THOR ABLESTAR DEB
1 00469U 61015FF  26033.60255882  .00001232  00000-0  45259-3 0  9998
2 00469  66.8326 148.6127 0064107 293.0728  66.3624 14.34850622333708
Epoch: 2026-02-02T14:27Z
TLE epoch observation values (Epoch: 2026-02-02T14:27:41.082Z)
Latitude
0.00006°
Longitude
158.89606°
Altitude
759.543 km
Speed
7.485 km/s
True Right ascension
09h 54m 27s
True Declination
0° 00' 00"
Sunlit
Object was in full shadow at epoch
Visualization orbit readout
Latitude
Unknown
Longitude
Unknown
Altitude
Unknown
Speed
Unknown
Apparent Right ascension
Unknown
Apparent Declination
Unknown
Sunlit
N/A
Visualization observer readout
Local Sidereal Time
13:00:05
Azimuth
Unknown
Elevation
Unknown
Doppler factor
Unknown
Orbital elements
Apogee altitude
819.768 km
Perigee altitude
728.069 km
Semi-major axis
7,152.056 km
Eccentricity
0.00641
Inclination
66.8326°
RAAN
148.6127°
Arg. of periapsis
293.0728°
True anomaly
67.03753°
Mean anomaly
66.3624°
Eccentric anomaly
66.69975°
Mean motion
3.58837 °/min
Orbital period
100.32 mins
BSTAR
0.00045259

Documentation

Showing up to 5 results
|